Regional Weather Roundup
Issued by NWS

Home | Current Version | Previous Version | Text Only | Print | Product List | Glossary Off
Versions: 1 2 3 4 5 6 7 8 9 10 11 12 13 14 15 16 17 18 19 20 21 22 23 24 25 26 27 28 29 30 31 32 33 34 35 36 37 38 39 40 41 42 43 44 45 46 47 48 49 50

000
ASUS43 KIND 060009
RWRIN

WEATHER ROUNDUP FOR INDIANA
NATIONAL WEATHER SERVICE INDIANAPOLIS IN
800 PM EDT THU MAY 05 2016

NOTE: "FAIR" INDICATES FEW OR NO CLOUDS BELOW 12,000 FEET WITH NO
SIGNIFICANT WEATHER AND/OR OBSTRUCTIONS TO VISIBILITY.

* - STATION DOES NOT REPORT WEATHER SUCH AS PRECIPITATION OR FOG.

+ - STATION NOT QUALITY CONTROLLED BY THE NATIONAL WEATHER SERVICE.
    USE DATA WITH CAUTION...ESPECIALLY DEWPOINT AND RELATIVE
    HUMIDITY OBSERVATIONS.

INZ001>003-010>013-019-020-060100-
NORTHWEST INDIANA

CITY           SKY/WX    TMP DP  RH WIND       PRES   REMARKS
GARY /AIRPORT/ CLEAR     52  46  82 NE7       29.98F
KNOX *+        CLEAR     54  34  47 N10       29.95S
LA PORTE +     CLEAR     52  43  69 NW12      29.97S
6HR MIN TEMP:  52; 6HR MAX TEMP:  56;

MICHIGAN CITY+ CLEAR     46  39  76 CALM      29.99S
MONTICELLO +   CLEAR     58  39  50 N10       29.94S
6HR MIN TEMP:  58; 6HR MAX TEMP:  63;

RENSSELAER +   CLEAR     59  41  51 N9        29.97R
VALPARAISO     CLEAR     52  41  66 N7        29.97F
6HR MIN TEMP:  50; 6HR MAX TEMP:  55;


$$

LMZ046-743>745-060100-
SOUTHERN LAKE MICHIGAN

STATION/POSITION TIME  TEMP    WIND        PRES    WAVE
                       AIR SEA DIR/SP/G            HT
                 (UTC) (F)     (DEG/KT/KT) (MB)    (FT)
BURNS HARBOR     2319   48      70/  7/  8 1015.9F
MICHIGAN CITY    2300   48     340/  4/  5   N/A

$$

INZ004-005-014>016-021>024-060100-
NORTH CENTRAL INDIANA

CITY           SKY/WX    TMP DP  RH WIND       PRES   REMARKS
ELKHART        CLEAR     57  46  67 NW9       29.94R
GOSHEN         CLEAR     57  43  59 NW12      29.92R
6HR MIN TEMP:  57; 6HR MAX TEMP:  66;

LOGANSPORT +   CLEAR     57  43  58 N13       29.94R
PERU/GRISSOM   CLEAR     59  45  58 NW12      29.91R
6HR MIN TEMP:  59; 6HR MAX TEMP:  65;

ROCHESTER +    CLEAR     59  43  55 N12       29.93S
SOUTH BEND     CLEAR     52  41  66 NW16      29.96R
6HR MIN TEMP:  52; 6HR MAX TEMP:  57;

WARSAW +       PTCLDY    57  45  62 NW9       29.92R

$$

INZ006>009-017-018-025>027-060100-
NORTHEAST INDIANA

CITY           SKY/WX    TMP DP  RH WIND       PRES   REMARKS
ANGOLA *+        N/A     63  52  67 N9        29.88S
AUBURN +       PTCLDY    61  37  41 N8        29.89R
FORT WAYNE     MOCLDY    62  42  47 N9        29.89R
6HR MIN TEMP:  60; 6HR MAX TEMP:  67; 6HR PCP: TRACE;

HUNTINGTON +   MOCLDY    60  47  62 NW9G17    29.89S
6HR MIN TEMP:  60; 6HR MAX TEMP:  66;


$$

INZ028-029-035-036-043>045-051>053-060100-
WEST CENTRAL INDIANA

CITY           SKY/WX    TMP DP  RH WIND       PRES   REMARKS
CRAWFORDSVL +  CLEAR     59  42  53 N10       29.94R
6HR MIN TEMP:  50; 6HR MAX TEMP:  63;

GREENCASTLE +  CLEAR     61  45  55 N12       29.93S
LAFAYETTE      CLEAR     59  43  55 N10       29.94R
6HR MIN TEMP:  56; 6HR MAX TEMP:  64;

TERRE HAUTE    CLEAR     63  44  50 N6        29.94S
6HR MIN TEMP:  56; 6HR MAX TEMP:  65;


$$

INZ030>032-037>040-046>048-054>057-064-065-060100-
CENTRAL INDIANA

CITY           SKY/WX    TMP DP  RH WIND       PRES   REMARKS
CP ATTERBURY + MOCLDY    59  46  63 NW7       29.91S
COLUMBUS       PTCLDY    59  50  72 NW9       29.90R
FRANKFORT +      N/A     60  32  35 N14G20    29.95R
6HR MIN TEMP:  55; 6HR MAX TEMP:  64;

GREENWOOD *+   CLOUDY    57  50  77 CALM      29.90S
INDIANAPOLIS   PTCLDY    61  44  53 NW16      29.90
6HR MIN TEMP:  53; 6HR MAX TEMP:  63;

-EAGLE CREEK   PTCLDY    61  45  55 N18G25    29.90S
6HR MIN TEMP:  54; 6HR MAX TEMP:  64;

KOKOMO *+      CLEAR     61  45  55 N10       29.91R
6HR MIN TEMP:  61; 6HR MAX TEMP:  64;

MARION +       MOCLDY    60  46  59 N12G18    29.91R
SHELBYVILLE    MOCLDY    61  47  59 NW8       29.88S
6HR MIN TEMP:  56; 6HR MAX TEMP:  65; 6HR PCP: TRACE;

ZIONSVILLE +   CLOUDY    59  44  57 N15G22    29.92R
6HR MIN TEMP:  54; 6HR MAX TEMP:  62;


$$

INZ033-034-041-042-049-050-058-059-060100-
EAST CENTRAL INDIANA

CITY           SKY/WX    TMP DP  RH WIND       PRES   REMARKS
MUNCIE         CLOUDY    61  47  59 N8        29.88S
6HR MIN TEMP:  60; 6HR MAX TEMP:  65; 6HR PCP:  0.01;


$$

INZ060-061-067>069-081>083-085>088-060100-
SOUTHWEST INDIANA

CITY           SKY/WX    TMP DP  RH WIND       PRES   REMARKS
EVANSVILLE     PTCLDY    59  46  62 W6        29.96S
6HR MIN TEMP:  55; 6HR MAX TEMP:  62;

HUNTINGBURG *+ CLEAR     61  45  55 NW6       29.94S
6HR MIN TEMP:  55; 6HR MAX TEMP:  61;

WASHINGTON +   CLEAR     60  46  59 N12       29.93S
6HR MIN TEMP:  55; 6HR MAX TEMP:  63;


$$

INZ062-063-066-070>080-084-089>092-060100-
SOUTH CENTRAL AND SOUTHEAST INDIANA

CITY           SKY/WX    TMP DP  RH WIND       PRES   REMARKS
BLOOMINGTON    PTCLDY    60  44  55 NW6       29.92S
6HR MIN TEMP:  52; 6HR MAX TEMP:  61;

MADISON *+     CLOUDY    61  43  51 NW9       29.90S
SEYMOUR +      MOCLDY    61  46  59 NW9       29.89S

$$





USA.gov is the U.S. government's official web portal to all federal, state and local government web resources and services.